{"data":{"norad_id":67258,"intl_designator":"2025-313L","name":"SITRO-AIS-58","alt_names":[],"object_type":"PAYLOAD","status":"ACTIVE","operator":null,"country":"CIS","launch_date":"2025-12-28","launch_site_code":"VOSTO","launch_vehicle":null,"mission":null,"orbit_class":"UNKNOWN","rcs_meters":null,"size_class":null,"mass_kg":null,"dimensions":null,"purposes":[],"wikipedia_slug":null,"has_3d_model":false,"image_url":null,"decayed_at":null,"tle_current":{"epoch":"2026-09-20T11:36:30.747744Z","epoch_age_seconds":104474,"freshness":"FRESH","line1":"1 67258U 25313L   26263.48368921  .00006079  00000+0  24867-3 0  9993","line2":"2 67258  97.3849 336.7048 0015460  33.9653 326.2572 15.24597912 40462","mean_motion":15.24597912,"eccentricity":0.001546,"inclination_deg":97.3849,"raan_deg":336.7048,"arg_perigee_deg":33.9653,"mean_anomaly_deg":326.2572,"bstar":0.00024867,"rev_number":4046,"period_min":94.451132896475,"perigee_km":481.37187089838,"apogee_km":502.61431314291,"semimajor_km":6870.1300920206,"source":"CELESTRAK","updated_at":"2026-09-21T09:00:16.513515Z"}}}